EA1BQO-1 Weather Reports


time (UTC)temp
C
wind
direction
speed
KPH
gust
KPH
rain 1hr
cm
rain 24hr
cm
rain mn
cm
humidity
%
barometer
mb
20260508080800 10 321 0.0 1.6 0.05 0.25 0.08 97 1006.3
20260508075800 10 186 0.0 1.6 0.05 0.25 0.08 96 1006.5
20260508074801 10 257 0.0 8.0 0.03 0.23 0.05 96 1006.3
20260508073800 10 234 0.0 4.8 0.03 0.23 0.05 92 1006.6
20260508072800 10 98 0.0 11.3 0.00 0.20 0.03 90 1006.7
20260508071800 10 68 4.8 14.5 0.00 0.20 0.03 88 1006.3
20260508070800 10 84 8.0 16.1 0.00 0.20 0.03 88 1006.4
20260508065800 10 97 4.8 11.3 0.00 0.20 0.03 88 1006.1
20260508064800 10 174 1.6 8.0 0.00 0.20 0.03 88 1006.0
20260508063800 10 33 0.0 9.7 0.00 0.20 0.03 88 1005.7
20260508062800 10 22 6.4 11.3 0.00 0.20 0.03 89 1005.6
20260508061800 10 25 4.8 11.3 0.00 0.20 0.03 89 1005.5
20260508060800 10 84 3.2 14.5 0.00 0.20 0.03 90 1005.3
20260508055800 10 54 4.8 11.3 0.00 0.20 0.03 91 1005.1
20260508054800 10 38 6.4 12.9 0.00 0.20 0.03 94 1005.1
20260508053800 10 67 1.6 12.9 0.00 0.20 0.03 99 1005.2
20260508052800 10 104 4.8 9.7 0.00 0.20 0.03 99 1005.1
20260508051800 9 122 3.2 8.0 0.00 0.20 0.03 99 1005.1
20260508050800 9 109 3.2 9.7 0.00 0.20 0.03 99 1005.0
20260508045800 9 108 1.6 8.0 0.00 0.20 0.03 99 1005.0
20260508044800 9 96 3.2 6.4 0.00 0.20 0.03 99 1005.0
20260508043800 9 86 0.0 4.8 0.00 0.20 0.03 99 1005.1
20260508042800 9 91 0.0 4.8 0.00 0.20 0.03 99 1005.1
20260508041800 9 93 0.0 8.0 0.00 0.20 0.03 99 1005.0
20260508040800 9 70 3.2 6.4 0.00 0.20 0.03 99 1005.0
20260508035800 9 69 1.6 4.8 0.00 0.20 0.03 99 1005.1
20260508034800 9 124 0.0 1.6 0.00 0.20 0.03 99 1005.1
20260508033800 10 48 0.0 8.0 0.00 0.20 0.03 99 1005.2
20260508032800 10 35 0.0 6.4 0.00 0.20 0.03 99 1005.2
20260508031800 10 3 0.0 6.4 0.00 0.20 0.03 99 1005.3
20260508030800 10 80 0.0 9.7 0.00 0.20 0.03 99 1005.4
20260508025800 10 71 3.2 9.7 0.00 0.20 0.03 99 1005.1
20260508024800 10 72 3.2 8.0 0.00 0.20 0.03 99 1005.4
20260508023800 10 90 1.6 9.7 0.00 0.20 0.03 99 1005.6
20260508022800 10 37 4.8 9.7 0.00 0.20 0.03 99 1005.6
20260508021800 9 69 9.7 14.5 0.00 0.20 0.03 99 1005.8
20260508020800 9 51 1.6 8.0 0.03 0.20 0.03 99 1006.0
20260508015800 9 65 1.6 4.8 0.03 0.20 0.03 99 1006.2
20260508014800 9 90 0.0 3.2 0.03 0.20 0.03 99 1006.1
20260508013800 9 0 0.0 0.0 0.03 0.20 0.03 99 1006.3
20260508012800 9 129 0.0 4.8 0.03 0.20 0.03 99 1006.5
20260508011800 9 132 0.0 4.8 0.03 0.20 0.03 99 1006.6
20260508010800 9 88 1.6 4.8 0.00 0.18 0.00 99 1006.7
20260508005800 9 16 0.0 4.8 0.00 0.18 0.00 99 1006.9
20260508004800 9 266 0.0 8.0 0.00 0.18 0.00 99 1007.4
20260508003800 9 252 1.6 6.4 0.00 0.18 0.00 99 1007.5
20260508002800 9 6 0.0 4.8 0.00 0.18 0.00 99 1007.5
20260508001800 9 311 0.0 4.8 0.00 0.18 0.00 99 1007.1
20260508000800 9 225 0.0 0.0 0.00 0.18 0.00 99 1007.2
20260507235800 9 140 0.0 4.8 0.00 0.18 0.00 99 1007.2
20260507234759 9 108 3.2 6.4 0.00 0.18 0.00 99 1007.1
20260507233800 10 103 0.0 4.8 0.00 0.18 0.00 99 1007.0
20260507232759 10 80 0.0 4.8 0.00 0.18 0.00 99 1007.3
20260507231800 10 74 0.0 4.8 0.00 0.18 0.00 99 1007.3
20260507230759 10 103 1.6 6.4 0.00 0.18 0.00 99 1007.4
20260507225759 10 108 1.6 3.2 0.00 0.18 0.00 99 1007.5
20260507224759 10 45 0.0 3.2 0.00 0.18 0.00 99 1007.7
20260507223759 10 94 1.6 4.8 0.00 0.18 0.00 99 1007.6
20260507222759 10 125 0.0 4.8 0.00 0.18 0.00 98 1007.9
20260507221759 10 94 0.0 4.8 0.00 0.18 0.00 97 1007.8
20260507220759 10 104 0.0 4.8 0.00 0.18 0.00 96 1008.0
20260507215759 10 145 1.6 3.2 0.00 0.18 0.18 94 1008.0
20260507214759 10 136 0.0 3.2 0.00 0.18 0.18 94 1008.1
20260507213759 10 181 0.0 1.6 0.00 0.18 0.18 93 1007.8
20260507212759 10 133 0.0 0.0 0.00 0.18 0.18 92 1007.8
20260507211759 10 137 0.0 1.6 0.00 0.18 0.18 91 1007.8
20260507210759 11 136 0.0 1.6 0.03 0.18 0.18 91 1007.6
20260507205759 11 171 0.0 1.6 0.08 0.18 0.18 90 1007.6
20260507204759 11 261 0.0 3.2 0.10 0.18 0.18 90 1007.4
20260507203759 11 303 0.0 4.8 0.10 0.18 0.18 90 1007.3
20260507202759 11 247 0.0 4.8 0.10 0.18 0.18 88 1007.2
20260507201759 11 247 1.6 8.0 0.10 0.18 0.18 84 1007.3
20260507200759 12 225 3.2 9.7 0.08 0.13 0.13 81 1007.0
20260507195759 12 194 0.0 11.3 0.00 0.05 0.05 74 1006.9
20260507194759 12 206 6.4 11.3 0.00 0.05 0.05 73 1006.6
20260507193759 12 227 3.2 8.0 0.00 0.05 0.05 73 1006.2
20260507192759 12 194 4.8 11.3 0.00 0.05 0.05 71 1006.1
20260507191759 13 195 4.8 9.7 0.00 0.05 0.05 65 1005.9
20260507190759 14 212 3.2 4.8 0.00 0.05 0.05 59 1005.9
20260507185759 15 285 0.0 4.8 0.00 0.05 0.05 55 1005.7
20260507184759 15 87 0.0 6.4 0.00 0.05 0.05 52 1005.4
20260507183759 15 70 0.0 4.8 0.00 0.05 0.05 51 1005.1
20260507182759 15 105 0.0 11.3 0.00 0.05 0.05 50 1005.1
20260507181759 16 91 4.8 11.3 0.00 0.05 0.05 48 1005.1
20260507180759 16 111 4.8 14.5 0.00 0.05 0.05 49 1005.1
20260507175759 16 137 4.8 12.9 0.00 0.05 0.05 46 1004.8
20260507174759 17 120 8.0 14.5 0.00 0.05 0.05 40 1004.7
20260507173759 17 123 6.4 16.1 0.00 0.05 0.05 43 1004.6
20260507172759 16 145 9.7 16.1 0.00 0.05 0.05 48 1004.8
20260507171759 17 118 8.0 14.5 0.00 0.05 0.05 45 1004.8
20260507170759 17 127 4.8 14.5 0.00 0.05 0.05 46 1004.8
20260507165759 17 121 9.7 17.7 0.00 0.05 0.05 44 1004.7
20260507164759 17 133 9.7 19.3 0.00 0.05 0.05 46 1004.9
20260507163759 17 131 9.7 19.3 0.00 0.05 0.05 46 1005.1
20260507162759 17 119 8.0 17.7 0.00 0.05 0.05 46 1005.0
20260507161759 17 135 12.9 16.1 0.00 0.05 0.05 46 1005.1
20260507160759 17 145 4.8 11.3 0.00 0.05 0.05 46 1005.0
20260507155759 17 60 4.8 9.7 0.00 0.05 0.05 49 1005.1
20260507154759 17 70 4.8 6.4 0.00 0.05 0.05 55 1005.5
20260507153759 16 65 4.8 12.9 0.00 0.05 0.05 58 1005.4
20260507152759 16 64 8.0 16.1 0.03 0.05 0.05 61 1005.5
20260507151759 14 52 4.8 9.7 0.03 0.05 0.05 70 1005.8
20260507150759 13 34 1.6 14.5 0.03 0.05 0.05 68 1006.0
20260507145759 13 337 6.4 14.5 0.03 0.05 0.05 65 1006.0
20260507144759 13 27 6.4 9.7 0.03 0.05 0.05 64 1006.1
20260507143759 13 24 0.0 11.3 0.03 0.05 0.05 65 1006.4
20260507142759 14 65 8.0 12.9 0.00 0.03 0.03 56 1005.8
20260507141759 14 50 4.8 22.5 0.00 0.03 0.03 53 1005.7
20260507140759 15 44 14.5 19.3 0.00 0.03 0.03 53 1005.7
20260507135759 15 89 4.8 19.3 0.00 0.03 0.03 46 1005.5
20260507134759 16 92 4.8 20.9 0.00 0.03 0.03 41 1005.3
20260507133759 16 63 4.8 11.3 0.00 0.03 0.03 47 1005.3
20260507132759 16 37 3.2 14.5 0.00 0.03 0.03 47 1005.2
20260507131759 17 39 4.8 11.3 0.00 0.03 0.03 42 1005.2
20260507130759 17 20 4.8 12.9 0.00 0.03 0.03 43 1005.2
20260507125759 15 47 8.0 9.7 0.00 0.03 0.03 55 1005.3
20260507124759 15 90 3.2 11.3 0.00 0.03 0.03 54 1005.6
20260507123758 16 33 3.2 11.3 0.00 0.03 0.03 48 1005.8
20260507122758 16 49 4.8 16.1 0.03 0.03 0.03 38 1005.9
20260507121758 18 67 4.8 9.7 0.03 0.03 0.03 35 1005.8
20260507120758 17 23 0.0 4.8 0.03 0.03 0.03 47 1005.9
20260507115758 16 355 0.0 14.5 0.03 0.03 0.03 49 1006.0
20260507114758 16 17 8.0 11.3 0.03 0.03 0.03 49 1006.1
20260507113758 16 48 0.0 4.8 0.03 0.03 0.03 50 1006.3
20260507112758 15 41 0.0 9.7 0.00 0.00 0.00 47 1006.4
20260507111758 16 50 1.6 9.7 0.00 0.00 0.00 47 1006.4
20260507110758 16 51 0.0 11.3 0.00 0.00 0.00 42 1006.3
20260507105758 17 59 6.4 14.5 0.00 0.00 0.00 36 1006.3
20260507104758 17 85 4.8 11.3 0.00 0.00 0.00 36 1006.3
20260507103758 17 100 4.8 16.1 0.00 0.00 0.00 38 1006.4
20260507102758 18 77 4.8 19.3 0.00 0.00 0.00 35 1006.6
20260507101758 18 70 3.2 14.5 0.00 0.00 0.00 40 1006.6
20260507100758 17 69 4.8 16.1 0.00 0.00 0.00 45 1006.7
20260507095758 17 68 1.6 17.7 0.00 0.00 0.00 44 1006.9
20260507094758 16 70 4.8 17.7 0.00 0.00 0.00 45 1006.8
20260507093758 16 38 4.8 14.5 0.00 0.00 0.00 48 1007.0
20260507092758 16 68 4.8 14.5 0.00 0.00 0.00 48 1007.1
20260507091758 15 85 8.0 14.5 0.00 0.00 0.00 49 1007.2
20260507090758 15 96 9.7 16.1 0.00 0.00 0.00 50 1007.3
20260507085758 15 100 9.7 14.5 0.00 0.00 0.00 52 1007.3
20260507084758 14 106 3.2 11.3 0.00 0.00 0.00 58 1007.2
20260507083758 13 122 6.4 11.3 0.00 0.00 0.00 62 1007.4
20260507082758 12 88 3.2 8.0 0.00 0.00 0.00 66 1007.3
20260507081758 12 108 1.6 11.3 0.00 0.00 0.00 66 1007.4